Location: New Plymouth
(39.0670°S, 174.0830°E)
Time: 04:04:25
(UTC+12:00)

NOAA 19 - Pass Details

Date: 27 August 2019
Orbit: 840 x 862 km, 99.2° (Epoch: 21 September)

Event Time Altitude Azimuth Distance (km) Brightness Sun altitude
Rises 19:31:20 0° 186° (S) 3,463 8.5 -19.1°
Reaches altitude 10° 19:34:57 10° 210° (SSW) 2,522 8.1 -19.8°
Maximum altitude 19:37:37 14° 239° (WSW) 2,257 8.3 -20.4°
Drops below altitude 10° 19:40:17 10° 268° (W) 2,514 8.9 -20.9°
Sets 19:43:54 0° 292° (WNW) 3,443 9.5 -21.6°
